Vertical_Velocity
-3 -5 -3 -3 -2 -1 -3 -2 -3 -5 -0 -4 -0 -1 5 6 8 32 -3 -6 -5 -5 -5 -1 6 -4 6 -10 -8 11 73 3 4 -4 -1 3 0 1 3 1 1 0 2 1
-1 -3 -4 -4 -2 -1 -3 -3 -3 -0 -1 -6 -2 4 5 8 17 -11 -22 7 19 21 30 21 4 6 14 50 -4 13 45 46 1 -1 -5 1 2 1 -1 1 2 2 1 -0
-1 -2 -3 -4 -4 -4 -5 -3 -1 -2 -1 -3 -1 -4 6 1 -10 14 16 6 38 16 39 -8 13 10 33 8 6 18 10 4 -6 -7 -6 -3 3 3 6 5 4 4 -1 -1
-1 -1 -3 -4 -6 -6 -3 -1 -1 -2 -4 -3 -5 -4 7 -0 -2 10 17 21 13 18 16 -4 7 5 12 16 22 14 1 30 6 9 -2 -1 -2 1 0 1 -0 -1 1 1
-2 -2 -2 -2 -4 -2 -3 -2 -3 -2 -4 -1 -0 -6 -0 -5 -1 3 2 13 20 -6 17 -1 1 4 10 -8 -10 15 7 12 54 12 -0 1 4 -1 1 3 -1 1 4 3
-3 -3 -1 -1 -1 -4 -6 -3 -3 -3 -1 -1 -3 1 1 -0 2 -0 -6 -2 -11 18 8 4 -1 -15 -5 -7 -7 -13 -5 -2 -1 11 31 -1 1 2 4 1 -2 -1 -0 2
-1 -2 -1 -4 -4 -3 -3 -6 -6 -10 -5 -1 -2 -3 8 -3 -2 -4 -1 -1 2 -12 -5 6 6 -11 -5 -2 6 0 -0 -11 -9 -4 8 5 15 21 7 2 3 -1 -1 2
5 -2 -3 0 -2 -3 -5 -4 -5 -6 -6 -1 -4 -6 6 2 1 -1 0 -2 0 2 2 -1 0 6 4 15 -24 -2 -5 -4 -4 -6 0 -2 7 0 7 12 1 1 2 2
-4 1 1 -2 -1 -0 -1 -5 -3 -2 -4 -0 -1 -6 -11 -1 2 1 -3 -5 -3 -4 -11 -3 1 0 -4 -6 8 1 3 0 3 2 3 4 5 3 0 12 11 18 7 4
-0 2 -1 -1 -1 -1 -0 -0 -3 -1 -1 -5 -5 -1 -1 -1 -3 0 -3 -5 -4 -2 2 -0 -2 -1 -8 -5 -4 -1 -0 4 -2 8 10 2 -7 -4 -1 -3 3 2 8 19
-4 -3 0 1 -2 -2 -2 -1 -0 -1 -3 -3 -4 -4 -7 -2 -2 -2 -2 -2 1 -2 -1 -1 3 2 -0 -1 1 -2 3 3 8 -0 -3 2 3 2 2 -2 -2 1 -0 2
-1 -1 -1 -3 0 -1 -1 -2 -2 -1 0 -0 -2 -4 -0 -1 -5 -4 -2 -3 -2 -2 2 5 7 5 -1 1 2 0 5 5 1 -6 -7 -2 -1 -5 -4 2 -1 2 7 3
1 0 0 0 -1 2 -1 -1 -1 -1 -2 -1 -2 3 -1 -1 -2 -0 -1 2 -0 2 0 -2 1 4 5 9 8 5 2 -3 -4 3 2 1 -2 -2 -1 -1 -3 -2 -2 -0
0 2 0 2 1 -1 -1 2 -0 1 2 1 1 -5 0 0 -0 0 0 0 2 2 0 3 4 5 4 1 -1 -2 -2 -1 -1 -0 -1 -1 0 2 4 0 -3 -3 -1 0
3 2 -2 -3 -0 0 -1 -1 3 2 0 1 -2 1 -0 1 -1 0 2 -0 -2 -2 0 2 -1 -0 1 -1 -0 -1 -4 -6 -7 -7 -4 -1 -2 0 2 4 4 4 0 -1
2 7 4 4 1 -2 3 -1 0 -0 1 3 -1 -6 0 -1 2 -1 -2 -1 1 0 -1 -2 -1 -1 -6 -8 -4 -5 -2 4 5 1 -1 -2 -3 -1 -0 -3 1 3 1 3
1 0 2 14 2 -3 6 -1 -1 1 1 -3 -1 -2 -1 0 -2 -2 -2 -3 -2 -3 -3 -2 -0 -0 2 3 5 -1 -4 -3 0 4 5 1 -3 -5 -4 -2 -1 -3 -2 1
1 -0 -9 4 -3 -4 2 3 3 -1 1 -3 -1 -4 -2 -1 -2 2 2 -2 -1 -1 -3 -4 -3 -2 -1 -1 1 2 5 8 3 -3 -7 -8 -3 -0 1 -2 -3 -1 -1 -1
2 2 -2 -6 2 -2 8 3 1 1 9 2 -0 -0 -1 -4 -4 -0 -4 -4 -2 -4 -6 -6 -5 -6 -4 -3 -5 -3 -1 1 2 6 5 1 -1 1 -1 -2 -1 -6 -4 -1
-0 2 0 -2 -9 -9 6 0 3 -3 -7 2 2 2 2 0 1 -6 0 4 -1 1 2 -0 -3 -3 -2 -4 -3 -1 -2 -3 -1 -1 -1 1 1 -2 2 1 5 1 -6 -5
2 -1 4 -4 -9 -11 3 -1 -5 -3 -11 -0 0 0 1 -2 1 -6 -8 -10 -6 -8 -6 -4 -5 -5 -8 -5 -3 -5 -4 -1 -1 -2 -2 -1 -4 -2 -5 -1 -9 -7 4 6
1 -1 5 -0 -4 -6 4 -1 1 -3 -3 -2 -2 -3 -5 -2 -2 -3 -6 -7 -7 -5 -7 -8 -4 -6 -6 -6 -4 -5 -3 -2 -3 -1 -0 1 -1 -4 -3 -6 -0 -6 -11 -5
-7 2 -5 2 -4 -1 -3 -1 -1 -2 1 -1 -2 -2 -2 -3 -3 -2 -2 -2 -2 -3 -3 -7 -4 -1 -5 -5 -8 -3 -3 -3 -0 -2 -1 -2 -2 -1 -3 -3 -4 -5 -6 -10
3 3 2 1 10 -1 -1 -2 -1 -2 -2 -2 -1 -2 -3 -2 -5 -4 -4 -5 -3 -2 0 1 0 -1 1 -5 -4 -9 -4 -4 -3 -0 -1 -1 -2 -1 -3 -4 -4 -3 -3 -5
6 2 4 -2 3 -3 4 -1 -1 1 -0 -1 -3 -2 -2 -1 -4 -1 -1 -3 -2 -2 -1 -1 -1 -2 -1 1 -1 -3 -2 -3 -2 -3 -2 -0 -4 -4 -0 1 -2 -2 5 -8
2 2 0 -5 1 -2 5 3 2 2 1 0 -1 -1 -2 -0 1 -2 -1 -1 -2 -1 -1 -2 -3 -2 -2 -1 -0 -3 -3 -3 0 0 -1 -2 -1 -1 -2 -2 7 8 -4 -1
Height
5744 5738 5732 5727 5723 5718 5714 5708 5701 5693 5686 5681 5678 5675 5667 5659 5655 5651 5645 5644 5648 5653 5658 5662 5669 5683 5694 5706 5716 5723 5710 5728 5741 5750 5756 5761 5766 5771 5775 5779 5783 5787 5791 5795
5744 5738 5733 5727 5722 5718 5713 5708 5702 5695 5688 5683 5682 5676 5667 5660 5656 5656 5651 5647 5645 5653 5658 5665 5671 5681 5689 5698 5709 5717 5718 5722 5732 5741 5749 5754 5759 5763 5767 5772 5776 5779 5783 5787
5743 5738 5732 5727 5721 5716 5713 5709 5703 5696 5690 5686 5684 5678 5674 5669 5663 5661 5653 5653 5652 5653 5659 5666 5673 5679 5682 5695 5700 5704 5708 5715 5723 5732 5741 5746 5751 5755 5760 5765 5769 5773 5777 5779
5744 5738 5733 5727 5722 5718 5714 5710 5704 5697 5692 5689 5688 5685 5680 5676 5667 5664 5661 5662 5661 5664 5665 5671 5676 5676 5684 5689 5694 5704 5711 5712 5719 5726 5734 5740 5745 5748 5751 5755 5759 5763 5767 5771
5745 5738 5733 5727 5724 5720 5716 5711 5706 5700 5695 5691 5691 5689 5685 5684 5677 5677 5671 5671 5670 5666 5672 5675 5681 5682 5684 5687 5693 5698 5702 5712 5713 5721 5728 5733 5737 5741 5744 5747 5750 5754 5759 5763
5745 5738 5733 5728 5724 5720 5717 5713 5708 5704 5699 5695 5693 5691 5690 5686 5687 5680 5680 5681 5682 5678 5677 5681 5686 5689 5691 5693 5696 5699 5702 5705 5710 5712 5719 5726 5729 5731 5734 5738 5741 5744 5747 5751
5745 5739 5734 5729 5724 5720 5717 5714 5711 5708 5703 5701 5695 5693 5691 5688 5689 5690 5687 5685 5684 5687 5686 5687 5689 5694 5696 5700 5699 5700 5700 5701 5706 5710 5711 5713 5715 5718 5721 5723 5727 5731 5735 5738
5744 5739 5734 5730 5725 5720 5717 5715 5712 5709 5707 5705 5702 5697 5695 5693 5690 5691 5692 5690 5689 5689 5691 5693 5692 5694 5697 5697 5698 5699 5698 5700 5701 5703 5704 5706 5706 5708 5709 5712 5715 5718 5721 5724
5743 5739 5734 5730 5726 5722 5717 5715 5714 5711 5708 5705 5705 5703 5700 5697 5694 5693 5694 5692 5690 5689 5690 5690 5691 5691 5692 5692 5694 5698 5695 5696 5697 5699 5700 5699 5698 5700 5700 5701 5702 5706 5706 5709
5741 5739 5734 5730 5727 5722 5719 5716 5713 5712 5710 5707 5705 5703 5702 5700 5699 5697 5696 5695 5693 5690 5690 5690 5689 5689 5691 5693 5692 5692 5692 5690 5692 5693 5690 5690 5693 5691 5691 5692 5691 5692 5693 5695
5739 5736 5734 5729 5725 5722 5719 5716 5712 5710 5709 5707 5706 5705 5702 5699 5697 5695 5694 5694 5693 5692 5692 5690 5689 5688 5688 5687 5686 5686 5685 5685 5686 5685 5684 5683 5686 5684 5682 5682 5683 5682 5683 5684
5734 5732 5729 5727 5723 5721 5718 5715 5711 5709 5707 5704 5703 5703 5699 5698 5697 5695 5692 5690 5687 5684 5682 5681 5680 5679 5680 5681 5682 5680 5678 5678 5678 5676 5675 5675 5675 5675 5675 5674 5672 5672 5671 5671
5730 5727 5725 5722 5721 5717 5715 5712 5709 5706 5704 5702 5699 5699 5696 5693 5691 5689 5687 5685 5683 5681 5679 5677 5677 5677 5676 5675 5674 5672 5671 5670 5668 5665 5664 5664 5663 5661 5661 5662 5661 5661 5660 5659
5724 5721 5719 5717 5715 5713 5710 5708 5705 5703 5700 5698 5696 5692 5692 5689 5687 5684 5682 5679 5676 5674 5673 5672 5671 5668 5666 5665 5664 5663 5662 5661 5658 5656 5655 5654 5651 5649 5648 5647 5646 5646 5645 5644
5719 5717 5713 5711 5707 5705 5704 5702 5699 5697 5694 5692 5689 5687 5685 5683 5681 5678 5675 5673 5671 5668 5665 5663 5661 5659 5657 5655 5652 5651 5649 5647 5645 5645 5643 5640 5638 5638 5636 5634 5632 5631 5629 5629
5710 5709 5705 5705 5701 5697 5697 5695 5692 5690 5688 5685 5682 5679 5678 5674 5672 5670 5667 5664 5661 5658 5655 5651 5648 5644 5642 5639 5636 5634 5631 5630 5628 5626 5624 5623 5622 5620 5619 5618 5617 5616 5614 5613
5699 5697 5696 5696 5692 5689 5689 5687 5684 5682 5680 5677 5674 5671 5667 5665 5662 5660 5657 5654 5651 5647 5644 5640 5637 5633 5627 5622 5617 5613 5610 5607 5605 5603 5601 5601 5601 5601 5600 5598 5597 5596 5596 5596
5691 5688 5686 5686 5683 5680 5679 5678 5676 5674 5671 5668 5664 5660 5657 5654 5651 5648 5644 5641 5637 5634 5629 5625 5620 5615 5611 5606 5601 5595 5590 5585 5581 5578 5577 5576 5575 5574 5574 5575 5575 5574 5573 5573
5681 5678 5675 5674 5673 5672 5670 5668 5666 5662 5661 5656 5653 5649 5645 5641 5637 5635 5631 5626 5621 5617 5612 5608 5603 5598 5592 5586 5581 5575 5569 5563 5558 5553 5549 5547 5546 5547 5546 5546 5547 5548 5549 5549
5672 5670 5668 5665 5663 5661 5661 5658 5654 5650 5648 5644 5640 5636 5632 5628 5623 5621 5616 5611 5605 5599 5593 5588 5582 5577 5571 5565 5559 5552 5545 5539 5533 5528 5522 5517 5514 5512 5513 5515 5517 5519 5520 5523
5663 5660 5658 5654 5653 5652 5651 5647 5643 5640 5639 5632 5628 5623 5618 5613 5609 5602 5597 5591 5585 5579 5573 5566 5559 5552 5546 5541 5534 5528 5521 5515 5508 5501 5495 5490 5485 5481 5478 5477 5475 5476 5479 5487
5653 5651 5649 5645 5642 5641 5639 5635 5632 5627 5622 5617 5613 5608 5603 5597 5590 5583 5576 5570 5563 5556 5549 5542 5534 5526 5519 5513 5506 5500 5494 5487 5482 5476 5469 5464 5459 5455 5452 5450 5448 5446 5445 5447
5644 5642 5639 5636 5632 5628 5624 5619 5615 5611 5606 5601 5596 5590 5583 5577 5570 5563 5555 5547 5539 5531 5522 5514 5507 5498 5490 5483 5476 5471 5465 5459 5454 5449 5444 5440 5436 5432 5428 5426 5425 5423 5420 5417
5632 5630 5626 5622 5620 5614 5609 5604 5599 5594 5589 5583 5576 5570 5563 5555 5547 5539 5531 5523 5515 5506 5497 5487 5478 5469 5461 5453 5446 5440 5436 5432 5429 5426 5422 5420 5418 5417 5414 5412 5408 5405 5401 5398
5622 5617 5613 5608 5604 5599 5593 5588 5582 5577 5570 5563 5556 5549 5540 5532 5522 5514 5505 5496 5487 5478 5469 5460 5451 5443 5437 5431 5425 5420 5417 5414 5412 5409 5407 5405 5403 5401 5401 5399 5395 5391 5387 5380
5608 5604 5599 5593 5589 5583 5579 5573 5566 5559 5551 5544 5536 5527 5518 5510 5500 5490 5480 5469 5459 5450 5442 5435 5429 5423 5418 5414 5410 5406 5403 5401 5399 5397 5394 5392 5390 5387 5385 5383 5383 5377 5373 5369